Time,TemperatureF,DewpointF,PressureIn,WindDirection,WindDirectionDegrees,WindSpeedMPH,WindSpeedGustMPH,Humidity,HourlyPrecipIn,Conditions,Clouds,dailyrainin,SoftwareType,DateUTC
2013-07-10 00:01:00,75.7,72.6,30.08,NW,315,0.0,0.0,90,0.00,CLR,,0.00,WeatherDisplay:10.37,2013-07-10 05:01:00,
2013-07-10 00:06:00,75.4,72.2,30.08,NW,315,0.0,0.0,90,0.00,CLR,,0.00,WeatherDisplay:10.37,2013-07-10 05:06:00,
2013-07-10 00:11:00,75.4,72.6,30.08,NW,315,0.0,0.0,91,0.00,CLR,,0.00,WeatherDisplay:10.37,2013-07-10 05:11:00,
2013-07-10 00:16:00,75.2,72.4,30.08,NW,315,0.0,0.0,91,0.00,CLR,,0.00,WeatherDisplay:10.37,2013-07-10 05:16:00,
2013-07-10 00:21:00,75.0,72.2,30.07,NW,315,0.0,0.0,91,0.00,CLR,,0.00,WeatherDisplay:10.37,2013-07-10 05:21:00,
2013-07-10 00:26:00,75.0,72.2,30.08,NW,315,0.0,0.0,91,0.00,CLR,,0.00,WeatherDisplay:10.37,2013-07-10 05:26:00,
2013-07-10 00:31:00,75.0,72.2,30.08,NW,315,0.0,0.0,91,0.00,CLR,,0.00,WeatherDisplay:10.37,2013-07-10 05:31:00,
2013-07-10 00:36:00,75.0,72.2,30.07,NW,315,0.0,0.0,91,0.00,CLR,,0.00,WeatherDisplay:10.37,2013-07-10 05:36:00,
2013-07-10 00:41:00,75.0,72.2,30.07,NW,315,0.0,0.0,91,0.00,CLR,,0.00,WeatherDisplay:10.37,2013-07-10 05:41:00,
2013-07-10 00:46:00,74.8,72.0,30.07,NW,315,0.0,0.0,91,0.00,CLR,,0.00,WeatherDisplay:10.37,2013-07-10 05:46:00,
2013-07-10 00:51:00,74.8,72.0,30.07,NW,315,0.0,0.0,91,0.00,CLR,,0.00,WeatherDisplay:10.37,2013-07-10 05:51:00,
2013-07-10 00:56:00,74.8,72.0,30.07,NW,315,0.0,0.0,91,0.00,CLR,,0.00,WeatherDisplay:10.37,2013-07-10 05:56:00,
2013-07-10 01:01:00,74.8,72.0,30.07,NW,315,0.0,0.0,91,0.00,CLR,,0.00,WeatherDisplay:10.37,2013-07-10 06:01:00,
2013-07-10 01:06:00,74.8,72.0,30.07,NW,315,0.0,0.0,91,0.00,CLR,,0.00,WeatherDisplay:10.37,2013-07-10 06:06:00,
2013-07-10 01:11:00,74.8,72.0,30.07,NW,315,0.0,0.0,91,0.00,CLR,,0.00,WeatherDisplay:10.37,2013-07-10 06:11:00,
2013-07-10 01:16:00,74.5,71.7,30.07,NW,315,0.0,0.0,91,0.00,CLR,,0.00,WeatherDisplay:10.37,2013-07-10 06:16:00,
2013-07-10 01:21:00,74.5,71.7,30.06,NW,315,0.0,0.0,91,0.00,CLR,,0.00,WeatherDisplay:10.37,2013-07-10 06:21:00,
2013-07-10 01:26:00,74.3,71.5,30.06,NW,315,0.0,0.0,91,0.00,CLR,,0.00,WeatherDisplay:10.37,2013-07-10 06:26:00,
2013-07-10 01:31:00,74.3,71.5,30.06,NW,315,0.0,0.0,91,0.00,CLR,,0.00,WeatherDisplay:10.37,2013-07-10 06:31:00,
2013-07-10 01:36:00,74.3,71.5,30.06,NW,315,0.0,0.0,91,0.00,CLR,,0.00,WeatherDisplay:10.37,2013-07-10 06:36:00,
2013-07-10 01:41:00,74.3,71.5,30.06,NW,315,0.0,0.0,91,0.00,CLR,,0.00,WeatherDisplay:10.37,2013-07-10 06:41:00,
2013-07-10 01:46:00,74.3,71.8,30.05,NW,315,0.0,0.0,92,0.00,CLR,,0.00,WeatherDisplay:10.37,2013-07-10 06:46:00,
2013-07-10 01:51:00,74.1,71.6,30.06,NW,315,0.0,0.0,92,0.00,CLR,,0.00,WeatherDisplay:10.37,2013-07-10 06:51:00,
2013-07-10 01:56:00,74.1,71.6,30.06,NW,315,0.0,0.0,92,0.00,CLR,,0.00,WeatherDisplay:10.37,2013-07-10 06:56:00,
2013-07-10 02:01:00,74.1,71.6,30.06,NW,315,0.0,0.0,92,0.00,CLR,,0.00,WeatherDisplay:10.37,2013-07-10 07:01:00,
2013-07-10 02:06:00,74.1,71.6,30.06,NW,315,0.0,0.0,92,0.00,CLR,,0.00,WeatherDisplay:10.37,2013-07-10 07:06:00,
2013-07-10 02:11:00,74.1,71.6,30.06,NW,315,0.0,0.0,92,0.00,CLR,,0.00,WeatherDisplay:10.37,2013-07-10 07:11:00,
2013-07-10 02:16:00,74.1,71.6,30.07,NW,315,0.0,0.0,92,0.00,CLR,,0.00,WeatherDisplay:10.37,2013-07-10 07:16:00,
2013-07-10 02:21:00,73.9,71.5,30.06,NW,315,0.0,0.0,92,0.00,CLR,,0.00,WeatherDisplay:10.37,2013-07-10 07:21:00,
2013-07-10 02:26:00,73.9,71.5,30.06,NW,315,0.0,0.0,92,0.00,CLR,,0.00,WeatherDisplay:10.37,2013-07-10 07:26:00,
2013-07-10 02:31:00,73.9,71.5,30.06,NW,315,0.0,0.0,92,0.00,CLR,,0.00,WeatherDisplay:10.37,2013-07-10 07:31:00,
2013-07-10 02:36:00,73.8,71.3,30.06,NW,315,0.0,0.0,92,0.00,CLR,,0.00,WeatherDisplay:10.37,2013-07-10 07:36:00,
2013-07-10 02:41:00,73.8,71.3,30.06,NW,315,0.0,0.0,92,0.00,CLR,,0.00,WeatherDisplay:10.37,2013-07-10 07:41:00,
2013-07-10 02:46:00,73.6,71.1,30.06,NW,315,0.0,0.0,92,0.00,CLR,,0.00,WeatherDisplay:10.37,2013-07-10 07:46:00,
2013-07-10 02:51:00,73.6,71.1,30.06,NW,315,0.0,0.0,92,0.00,CLR,,0.00,WeatherDisplay:10.37,2013-07-10 07:51:00,
2013-07-10 02:56:00,73.6,71.1,30.06,NW,315,0.0,0.0,92,0.00,CLR,,0.00,WeatherDisplay:10.37,2013-07-10 07:56:00,
2013-07-10 03:01:00,73.6,71.1,30.06,NW,315,0.0,0.0,92,0.00,CLR,,0.00,WeatherDisplay:10.37,2013-07-10 08:01:00,
2013-07-10 03:06:00,73.6,71.1,30.06,NW,315,0.0,0.0,92,0.00,CLR,,0.00,WeatherDisplay:10.37,2013-07-10 08:06:00,
2013-07-10 03:11:00,73.4,70.9,30.06,NW,315,0.0,0.0,92,0.00,CLR,,0.00,WeatherDisplay:10.37,2013-07-10 08:11:00,
2013-07-10 03:16:00,73.2,70.4,30.07,NW,315,0.0,0.0,91,0.00,CLR,,0.00,WeatherDisplay:10.37,2013-07-10 08:16:00,
2013-07-10 03:21:00,73.2,70.4,30.07,NW,315,0.0,0.0,91,0.00,CLR,,0.00,WeatherDisplay:10.37,2013-07-10 08:21:00,
2013-07-10 03:26:00,73.2,70.4,30.07,NW,315,0.0,0.0,91,0.00,CLR,,0.00,WeatherDisplay:10.37,2013-07-10 08:26:00,
2013-07-10 03:31:00,73.2,70.4,30.07,NW,315,0.0,0.0,91,0.00,CLR,,0.00,WeatherDisplay:10.37,2013-07-10 08:31:00,
2013-07-10 03:36:00,73.2,70.4,30.07,NW,315,0.0,0.0,91,0.00,CLR,,0.00,WeatherDisplay:10.37,2013-07-10 08:36:00,
2013-07-10 03:41:00,73.2,70.4,30.06,NW,315,0.0,0.0,91,0.00,CLR,,0.00,WeatherDisplay:10.37,2013-07-10 08:41:00,
2013-07-10 03:46:00,73.2,70.4,30.07,NW,315,0.0,0.0,91,0.00,CLR,,0.00,WeatherDisplay:10.37,2013-07-10 08:46:00,
2013-07-10 03:51:00,73.2,70.8,30.06,NW,315,0.0,0.0,92,0.00,CLR,,0.00,WeatherDisplay:10.37,2013-07-10 08:51:00,
2013-07-10 03:56:00,73.2,70.8,30.06,NW,315,0.0,0.0,92,0.00,CLR,,0.00,WeatherDisplay:10.37,2013-07-10 08:56:00,
2013-07-10 04:01:00,73.2,70.8,30.06,NW,315,0.0,0.0,92,0.00,CLR,,0.00,WeatherDisplay:10.37,2013-07-10 09:01:00,
2013-07-10 04:06:00,73.2,70.8,30.06,NW,315,0.0,0.0,92,0.00,CLR,,0.00,WeatherDisplay:10.37,2013-07-10 09:06:00,
2013-07-10 04:11:00,73.0,70.6,30.06,NW,315,0.0,0.0,92,0.00,CLR,,0.00,WeatherDisplay:10.37,2013-07-10 09:11:00,
2013-07-10 04:16:00,73.0,70.6,30.06,NW,315,0.0,0.0,92,0.00,CLR,,0.00,WeatherDisplay:10.37,2013-07-10 09:16:00,
2013-07-10 04:21:00,73.0,70.6,30.05,NW,315,0.0,0.0,92,0.00,CLR,,0.00,WeatherDisplay:10.37,2013-07-10 09:21:00,
2013-07-10 04:26:00,73.0,70.6,30.05,NW,315,0.0,0.0,92,0.00,CLR,,0.00,WeatherDisplay:10.37,2013-07-10 09:26:00,
2013-07-10 04:31:00,73.0,70.6,30.05,NW,315,0.0,0.0,92,0.00,CLR,,0.00,WeatherDisplay:10.37,2013-07-10 09:31:00,
2013-07-10 04:36:00,73.0,70.6,30.05,NW,315,0.0,0.0,92,0.00,CLR,,0.00,WeatherDisplay:10.37,2013-07-10 09:36:00,
2013-07-10 04:41:00,72.9,70.4,30.05,NW,315,0.0,0.0,92,0.00,CLR,,0.00,WeatherDisplay:10.37,2013-07-10 09:41:00,
2013-07-10 04:46:00,72.9,70.4,30.05,NW,315,0.0,0.0,92,0.00,CLR,,0.00,WeatherDisplay:10.37,2013-07-10 09:46:00,
2013-07-10 04:51:00,72.9,70.1,30.06,NW,315,0.0,0.0,91,0.00,CLR,,0.00,WeatherDisplay:10.37,2013-07-10 09:51:00,
2013-07-10 04:56:00,72.7,69.9,30.06,NW,315,0.0,0.0,91,0.00,CLR,,0.00,WeatherDisplay:10.37,2013-07-10 09:56:00,
2013-07-10 05:01:00,72.7,70.2,30.06,NW,315,0.0,0.0,92,0.00,CLR,,0.00,WeatherDisplay:10.37,2013-07-10 10:01:00,
2013-07-10 05:06:00,72.7,70.2,30.07,NW,315,0.0,0.0,92,0.00,CLR,,0.00,WeatherDisplay:10.37,2013-07-10 10:06:00,
2013-07-10 05:11:00,72.7,70.2,30.07,NW,315,0.0,0.0,92,0.00,CLR,,0.00,WeatherDisplay:10.37,2013-07-10 10:11:00,
2013-07-10 05:16:00,72.7,70.2,30.07,NW,315,0.0,0.0,92,0.00,CLR,,0.00,WeatherDisplay:10.37,2013-07-10 10:16:00,
2013-07-10 05:21:00,72.7,70.2,30.07,NW,315,0.0,0.0,92,0.00,CLR,,0.00,WeatherDisplay:10.37,2013-07-10 10:21:00,
2013-07-10 05:26:00,72.7,70.2,30.07,NW,315,0.0,0.0,92,0.00,CLR,,0.00,WeatherDisplay:10.37,2013-07-10 10:26:00,
2013-07-10 05:31:00,72.5,70.0,30.07,NW,315,0.0,0.0,92,0.00,CLR,,0.00,WeatherDisplay:10.37,2013-07-10 10:31:00,
2013-07-10 05:36:00,72.5,70.0,30.07,NW,315,0.0,0.0,92,0.00,CLR,,0.00,WeatherDisplay:10.37,2013-07-10 10:36:00,
2013-07-10 05:41:00,72.5,70.0,30.07,NW,315,0.0,0.0,92,0.00,CLR,,0.00,WeatherDisplay:10.37,2013-07-10 10:41:00,
2013-07-10 05:46:00,72.5,70.0,30.07,NW,315,0.0,0.0,92,0.00,CLR,,0.00,WeatherDisplay:10.37,2013-07-10 10:46:00,
2013-07-10 05:51:00,72.5,70.0,30.07,NW,315,0.0,0.0,92,0.00,CLR,,0.00,WeatherDisplay:10.37,2013-07-10 10:51:00,
2013-07-10 05:56:00,72.5,70.0,30.07,NW,315,0.0,0.0,92,0.00,CLR,,0.00,WeatherDisplay:10.37,2013-07-10 10:56:00,
2013-07-10 06:01:00,72.3,69.9,30.07,NW,315,0.0,0.0,92,0.00,CLR,,0.00,WeatherDisplay:10.37,2013-07-10 11:01:00,
2013-07-10 06:06:00,72.3,69.9,30.07,NW,315,0.0,0.0,92,0.00,CLR,,0.00,WeatherDisplay:10.37,2013-07-10 11:06:00,
2013-07-10 06:11:00,72.3,69.9,30.07,NW,315,0.0,0.0,92,0.00,CLR,,0.00,WeatherDisplay:10.37,2013-07-10 11:11:00,
2013-07-10 06:16:00,72.3,69.9,30.07,NW,315,0.0,0.0,92,0.00,CLR,,0.00,WeatherDisplay:10.37,2013-07-10 11:16:00,
2013-07-10 06:21:00,72.3,69.9,30.07,NW,315,0.0,0.0,92,0.00,CLR,,0.00,WeatherDisplay:10.37,2013-07-10 11:21:00,
2013-07-10 06:26:00,72.3,69.9,30.08,NW,315,0.0,0.0,92,0.00,CLR,,0.00,WeatherDisplay:10.37,2013-07-10 11:26:00,
2013-07-10 06:31:00,72.5,70.0,30.08,NW,315,0.0,0.0,92,0.00,CLR,,0.00,WeatherDisplay:10.37,2013-07-10 11:31:00,
2013-07-10 06:36:00,72.7,70.2,30.08,NW,315,0.0,0.0,92,0.00,CLR,,0.00,WeatherDisplay:10.37,2013-07-10 11:36:00,
2013-07-10 06:41:00,72.9,70.4,30.08,NW,315,0.0,0.0,92,0.00,CLR,,0.00,WeatherDisplay:10.37,2013-07-10 11:41:00,
2013-07-10 06:46:00,73.2,70.8,30.08,NW,315,0.0,0.0,92,0.00,CLR,,0.00,WeatherDisplay:10.37,2013-07-10 11:46:00,
2013-07-10 06:51:00,73.4,70.9,30.08,NW,315,0.0,0.0,92,0.00,CLR,,0.00,WeatherDisplay:10.37,2013-07-10 11:51:00,
2013-07-10 06:56:00,73.8,71.3,30.08,NW,315,0.0,0.0,92,0.00,CLR,,0.00,WeatherDisplay:10.37,2013-07-10 11:56:00,
2013-07-10 07:01:00,74.1,71.6,30.08,WNW,292,0.0,0.0,92,0.00,CLR,,0.00,WeatherDisplay:10.37,2013-07-10 12:01:00,
2013-07-10 07:07:00,74.5,72.0,30.08,WNW,292,0.0,0.0,92,0.00,CLR,,0.00,WeatherDisplay:10.37,2013-07-10 12:07:00,
2013-07-10 07:12:00,74.8,72.4,30.09,WNW,292,0.0,0.0,92,0.00,CLR,,0.00,WeatherDisplay:10.37,2013-07-10 12:12:00,
2013-07-10 07:17:00,75.0,72.5,30.08,WNW,292,0.0,0.0,92,0.00,CLR,,0.00,WeatherDisplay:10.37,2013-07-10 12:17:00,
2013-07-10 07:22:00,75.4,72.9,30.08,WNW,292,0.0,0.0,92,0.00,CLR,,0.00,WeatherDisplay:10.37,2013-07-10 12:22:00,
2013-07-10 07:27:00,75.6,73.1,30.08,WNW,292,0.0,0.0,92,0.00,CLR,,0.00,WeatherDisplay:10.37,2013-07-10 12:27:00,
2013-07-10 07:32:00,75.6,73.1,30.09,WNW,292,0.0,0.0,92,0.00,CLR,,0.00,WeatherDisplay:10.37,2013-07-10 12:32:00,
2013-07-10 07:37:00,75.7,73.2,30.09,WNW,292,0.0,0.0,92,0.00,CLR,,0.00,WeatherDisplay:10.37,2013-07-10 12:37:00,
2013-07-10 07:42:00,75.9,73.4,30.09,WNW,292,0.0,0.0,92,0.00,CLR,,0.00,WeatherDisplay:10.37,2013-07-10 12:42:00,
2013-07-10 07:47:00,75.9,73.4,30.09,WNW,292,0.0,0.0,92,0.00,CLR,,0.00,WeatherDisplay:10.37,2013-07-10 12:47:00,
2013-07-10 07:52:00,76.1,73.6,30.09,NE,45,0.0,0.0,92,0.00,CLR,,0.00,WeatherDisplay:10.37,2013-07-10 12:52:00,
2013-07-10 07:57:00,76.3,73.8,30.09,NE,45,0.0,0.0,92,0.00,CLR,,0.00,WeatherDisplay:10.37,2013-07-10 12:57:00,
2013-07-10 08:02:00,76.5,74.0,30.10,NE,45,0.0,0.0,92,0.00,CLR,,0.00,WeatherDisplay:10.37,2013-07-10 13:02:00,
2013-07-10 08:07:00,76.8,74.3,30.10,NE,45,0.0,0.0,92,0.00,CLR,,0.00,WeatherDisplay:10.37,2013-07-10 13:07:00,
2013-07-10 08:12:00,77.0,74.5,30.10,NE,45,0.0,0.0,92,0.00,CLR,,0.00,WeatherDisplay:10.37,2013-07-10 13:12:00,
2013-07-10 08:17:00,77.2,74.7,30.10,NE,45,0.0,0.0,92,0.00,CLR,,0.00,WeatherDisplay:10.37,2013-07-10 13:17:00,
2013-07-10 08:22:00,77.5,75.0,30.10,NE,45,0.0,0.0,92,0.00,CLR,,0.00,WeatherDisplay:10.37,2013-07-10 13:22:00,
2013-07-10 08:27:00,77.7,75.2,30.10,West,270,0.0,0.0,92,0.00,CLR,,0.00,WeatherDisplay:10.37,2013-07-10 13:27:00,
2013-07-10 08:32:00,78.4,76.2,30.10,West,270,0.0,0.0,93,0.00,CLR,,0.00,WeatherDisplay:10.37,2013-07-10 13:32:00,
2013-07-10 08:37:00,78.6,76.4,30.09,NW,315,0.0,0.0,93,0.00,CLR,,0.00,WeatherDisplay:10.37,2013-07-10 13:37:00,
2013-07-10 08:42:00,79.0,76.5,30.09,SW,225,0.0,0.0,92,0.00,CLR,,0.00,WeatherDisplay:10.37,2013-07-10 13:42:00,
2013-07-10 08:47:00,79.7,77.2,30.09,SW,225,0.0,0.0,92,0.00,CLR,,0.00,WeatherDisplay:10.37,2013-07-10 13:47:00,
2013-07-10 08:52:00,80.2,77.7,30.09,SW,225,0.0,0.0,92,0.00,CLR,,0.00,WeatherDisplay:10.37,2013-07-10 13:52:00,
2013-07-10 08:57:00,80.8,78.2,30.09,SW,225,1.2,1.6,92,0.00,CLR,,0.00,WeatherDisplay:10.37,2013-07-10 13:57:00,
2013-07-10 09:02:00,81.3,78.4,30.09,WSW,248,3.5,3.5,91,0.00,CLR,,0.00,WeatherDisplay:10.37,2013-07-10 14:02:00,
2013-07-10 09:07:00,81.7,78.5,30.09,West,270,10.4,20.7,90,0.00,CLR,,0.00,WeatherDisplay:10.37,2013-07-10 14:07:00,
2013-07-10 09:12:00,82.2,78.7,30.09,West,270,4.0,0.0,89,0.00,CLR,,0.00,WeatherDisplay:10.37,2013-07-10 14:12:00,
2013-07-10 09:17:00,82.9,79.0,30.09,WSW,248,2.3,0.0,88,0.00,CLR,,0.00,WeatherDisplay:10.37,2013-07-10 14:17:00,
2013-07-10 09:22:00,82.9,78.7,30.09,WNW,292,0.0,0.0,87,0.00,CLR,,0.00,WeatherDisplay:10.37,2013-07-10 14:22:00,
2013-07-10 09:27:00,82.9,78.7,30.08,SSW,202,0.0,0.0,87,0.00,CLR,,0.00,WeatherDisplay:10.37,2013-07-10 14:27:00,
2013-07-10 09:32:00,83.5,78.8,30.08,NNE,22,0.0,0.0,86,0.00,CLR,,0.00,WeatherDisplay:10.37,2013-07-10 14:32:00,
2013-07-10 09:37:00,83.7,79.0,30.08,NNE,22,0.0,0.0,86,0.00,CLR,,0.00,WeatherDisplay:10.37,2013-07-10 14:37:00,
2013-07-10 09:42:00,83.8,78.8,30.08,WSW,248,6.9,11.7,85,0.00,CLR,,0.00,WeatherDisplay:10.37,2013-07-10 14:42:00,
2013-07-10 09:47:00,84.0,79.0,30.09,SW,225,3.5,0.0,85,0.00,CLR,,0.00,WeatherDisplay:10.37,2013-07-10 14:47:00,
2013-07-10 09:52:00,84.2,78.8,30.09,SSW,202,0.0,0.0,84,0.00,CLR,,0.00,WeatherDisplay:10.37,2013-07-10 14:52:00,
2013-07-10 09:57:00,84.0,78.7,30.08,SSW,202,0.0,0.2,84,0.00,CLR,,0.00,WeatherDisplay:10.37,2013-07-10 14:57:00,
2013-07-10 10:02:00,84.4,79.0,30.09,West,270,3.5,0.0,84,0.00,CLR,,0.00,WeatherDisplay:10.37,2013-07-10 15:02:00,
2013-07-10 10:07:00,84.4,79.0,30.08,NNW,338,0.0,0.0,84,0.00,CLR,,0.00,WeatherDisplay:10.37,2013-07-10 15:07:00,
2013-07-10 10:12:00,84.6,78.8,30.08,WNW,292,0.0,0.0,83,0.00,CLR,,0.00,WeatherDisplay:10.37,2013-07-10 15:12:00,
2013-07-10 10:17:00,84.6,78.8,30.08,WSW,248,9.2,17.5,83,0.00,CLR,,0.00,WeatherDisplay:10.37,2013-07-10 15:17:00,
2013-07-10 10:22:00,84.7,79.0,30.08,WSW,248,0.0,0.0,83,0.00,CLR,,0.00,WeatherDisplay:10.37,2013-07-10 15:22:00,
2013-07-10 10:27:00,84.9,78.8,30.08,WSW,248,2.3,2.5,82,0.00,CLR,,0.00,WeatherDisplay:10.37,2013-07-10 15:27:00,
2013-07-10 10:32:00,85.1,79.0,30.08,West,270,1.2,1.2,82,0.00,CLR,,0.00,WeatherDisplay:10.37,2013-07-10 15:32:00,
2013-07-10 10:37:00,85.3,78.8,30.08,WNW,292,3.5,6.1,81,0.00,CLR,,0.00,WeatherDisplay:10.37,2013-07-10 15:37:00,
2013-07-10 10:42:00,85.3,78.8,30.08,West,270,0.9,0.9,81,0.00,CLR,,0.00,WeatherDisplay:10.37,2013-07-10 15:42:00,
2013-07-10 10:47:00,85.6,78.8,30.08,West,270,10.4,21.0,80,0.00,CLR,,0.00,WeatherDisplay:10.37,2013-07-10 15:47:00,
2013-07-10 10:52:00,85.8,78.2,30.08,SW,225,0.0,0.0,78,0.00,CLR,,0.00,WeatherDisplay:10.37,2013-07-10 15:52:00,
2013-07-10 10:57:00,85.8,78.2,30.08,North,0,0.0,1.3,78,0.00,CLR,,0.00,WeatherDisplay:10.37,2013-07-10 15:57:00,
2013-07-10 11:03:00,86.0,78.3,30.08,East,90,4.0,4.0,78,0.00,CLR,,0.00,WeatherDisplay:10.37,2013-07-10 16:03:00,
2013-07-10 11:04:00,86.0,78.3,30.08,East,90,3.5,6.6,78,0.00,CLR,,0.00,WeatherDisplay:10.37,2013-07-10 16:04:00,
2013-07-10 11:09:00,86.2,78.5,30.08,NW,315,3.5,6.1,78,0.00,CLR,,0.00,WeatherDisplay:10.37,2013-07-10 16:09:00,
2013-07-10 11:14:00,86.2,78.1,30.08,North,0,0.0,0.0,77,0.00,CLR,,0.00,WeatherDisplay:10.37,2013-07-10 16:14:00,
2013-07-10 11:19:00,86.4,78.3,30.08,West,270,0.0,0.0,77,0.00,CLR,,0.00,WeatherDisplay:10.37,2013-07-10 16:19:00,
2013-07-10 11:24:00,86.5,78.5,30.07,North,0,8.1,10.2,77,0.00,CLR,,0.00,WeatherDisplay:10.37,2013-07-10 16:24:00,
2013-07-10 11:29:00,86.5,78.5,30.07,WSW,248,10.6,10.6,77,0.00,CLR,,0.00,WeatherDisplay:10.37,2013-07-10 16:29:00,
2013-07-10 11:34:00,86.7,78.2,30.07,North,0,8.1,8.1,76,0.00,CLR,,0.00,WeatherDisplay:10.37,2013-07-10 16:34:00,
2013-07-10 11:39:00,86.5,78.1,30.07,West,270,0.0,0.0,76,0.00,CLR,,0.00,WeatherDisplay:10.37,2013-07-10 16:39:00,
2013-07-10 11:44:00,86.7,78.2,30.07,WSW,248,0.0,0.0,76,0.00,CLR,,0.00,WeatherDisplay:10.37,2013-07-10 16:44:00,
2013-07-10 11:49:00,86.7,78.2,30.07,North,0,3.5,3.5,76,0.00,CLR,,0.00,WeatherDisplay:10.37,2013-07-10 16:49:00,
2013-07-10 11:54:00,86.7,78.2,30.06,NW,315,0.0,0.0,76,0.00,CLR,,0.00,WeatherDisplay:10.37,2013-07-10 16:54:00,
2013-07-10 11:59:00,87.1,78.6,30.06,West,270,0.9,0.9,76,0.00,CLR,,0.00,WeatherDisplay:10.37,2013-07-10 16:59:00,
2013-07-10 12:04:00,87.1,78.2,30.05,NNE,22,1.2,2.6,75,0.00,CLR,,0.00,WeatherDisplay:10.37,2013-07-10 17:04:00,
2013-07-10 12:09:00,87.1,77.8,30.05,North,0,0.0,0.0,74,0.00,CLR,,0.00,WeatherDisplay:10.37,2013-07-10 17:09:00,
2013-07-10 12:14:00,87.1,78.2,30.05,SSW,202,0.0,0.0,75,0.00,CLR,,0.00,WeatherDisplay:10.37,2013-07-10 17:14:00,
2013-07-10 12:19:00,87.4,78.1,30.05,SW,225,0.0,0.0,74,0.00,CLR,,0.00,WeatherDisplay:10.37,2013-07-10 17:19:00,
2013-07-10 12:24:00,87.4,78.5,30.05,North,0,0.0,0.0,75,0.00,CLR,,0.00,WeatherDisplay:10.37,2013-07-10 17:24:00,
2013-07-10 12:29:00,87.6,77.9,30.05,ESE,112,3.5,3.5,73,0.00,CLR,,0.00,WeatherDisplay:10.37,2013-07-10 17:29:00,
2013-07-10 12:34:00,87.6,77.5,30.05,NNW,338,3.5,3.5,72,0.00,CLR,,0.00,WeatherDisplay:10.37,2013-07-10 17:34:00,
2013-07-10 12:39:00,87.6,77.5,30.05,WSW,248,0.0,0.0,72,0.00,CLR,,0.00,WeatherDisplay:10.37,2013-07-10 17:39:00,
2013-07-10 12:44:00,87.6,77.5,30.04,NW,315,0.0,0.0,72,0.00,CLR,,0.00,WeatherDisplay:10.37,2013-07-10 17:44:00,
2013-07-10 12:49:00,87.6,77.5,30.04,West,270,2.3,3.5,72,0.00,CLR,,0.00,WeatherDisplay:10.37,2013-07-10 17:49:00,
2013-07-10 12:54:00,87.6,77.9,30.03,West,270,4.9,9.6,73,0.00,CLR,,0.00,WeatherDisplay:10.37,2013-07-10 17:54:00,
2013-07-10 12:59:00,87.6,77.0,30.04,West,270,0.0,0.0,71,0.00,CLR,,0.00,WeatherDisplay:10.37,2013-07-10 17:59:00,
2013-07-10 13:04:00,87.4,77.3,30.03,West,270,0.0,0.0,72,0.00,CLR,,0.00,WeatherDisplay:10.37,2013-07-10 18:04:00,
2013-07-10 13:09:00,87.1,77.0,30.03,West,270,0.0,0.0,72,0.00,CLR,,0.00,WeatherDisplay:10.37,2013-07-10 18:09:00,
2013-07-10 13:14:00,86.9,76.8,30.03,West,270,0.0,0.0,72,0.00,CLR,,0.00,WeatherDisplay:10.37,2013-07-10 18:14:00,
2013-07-10 13:19:00,86.7,76.6,30.03,West,270,0.0,0.0,72,0.00,CLR,,0.00,WeatherDisplay:10.37,2013-07-10 18:19:00,
2013-07-10 13:24:00,86.7,77.0,30.02,West,270,0.0,0.0,73,0.00,CLR,,0.00,WeatherDisplay:10.37,2013-07-10 18:24:00,
2013-07-10 13:29:00,86.5,77.7,30.02,West,270,0.0,0.0,75,0.00,CLR,,0.00,WeatherDisplay:10.37,2013-07-10 18:29:00,
2013-07-10 13:34:00,86.5,77.7,30.01,West,270,0.0,0.0,75,0.00,CLR,,0.00,WeatherDisplay:10.37,2013-07-10 18:34:00,
2013-07-10 13:39:00,86.5,77.7,30.01,West,270,2.3,3.5,75,0.00,CLR,,0.00,WeatherDisplay:10.37,2013-07-10 18:39:00,
2013-07-10 13:44:00,86.4,77.9,30.01,NE,45,0.0,0.0,76,0.00,CLR,,0.00,WeatherDisplay:10.37,2013-07-10 18:44:00,
2013-07-10 13:49:00,86.4,77.9,30.01,NE,45,0.0,0.0,76,0.00,CLR,,0.00,WeatherDisplay:10.37,2013-07-10 18:49:00,
2013-07-10 13:54:00,86.4,77.9,30.01,NE,45,0.0,0.0,76,0.00,CLR,,0.00,WeatherDisplay:10.37,2013-07-10 18:54:00,
2013-07-10 13:59:00,86.2,77.7,30.01,NE,45,0.0,0.0,76,0.00,CLR,,0.00,WeatherDisplay:10.37,2013-07-10 18:59:00,
2013-07-10 14:04:00,86.0,77.5,30.01,NE,45,0.0,0.0,76,0.00,CLR,,0.00,WeatherDisplay:10.37,2013-07-10 19:04:00,
2013-07-10 14:09:00,85.8,77.8,30.00,NE,45,0.0,2.4,77,0.00,CLR,,0.00,WeatherDisplay:10.37,2013-07-10 19:09:00,
2013-07-10 14:14:00,85.6,78.0,29.99,NE,45,0.0,0.0,78,0.00,CLR,,0.00,WeatherDisplay:10.37,2013-07-10 19:14:00,
2013-07-10 14:19:00,85.6,78.0,29.99,NE,45,0.0,0.0,78,0.00,CLR,,0.00,WeatherDisplay:10.37,2013-07-10 19:19:00,
2013-07-10 14:24:00,85.5,77.8,29.99,NE,45,0.0,0.0,78,0.00,CLR,,0.00,WeatherDisplay:10.37,2013-07-10 19:24:00,
2013-07-10 14:29:00,85.3,78.0,29.98,NE,45,0.0,0.0,79,0.00,CLR,,0.00,WeatherDisplay:10.37,2013-07-10 19:29:00,
2013-07-10 14:34:00,85.3,78.0,29.99,NNW,338,0.0,0.0,79,0.00,CLR,,0.00,WeatherDisplay:10.37,2013-07-10 19:34:00,
2013-07-10 14:39:00,85.1,78.2,30.00,NNW,338,0.0,0.0,80,0.00,CLR,,0.00,WeatherDisplay:10.37,2013-07-10 19:39:00,
2013-07-10 14:44:00,84.9,78.1,30.01,East,90,0.4,0.9,80,0.00,CLR,,0.00,WeatherDisplay:10.37,2013-07-10 19:44:00,
2013-07-10 14:49:00,84.9,77.7,30.02,WSW,248,6.2,12.3,79,0.00,CLR,,0.00,WeatherDisplay:10.37,2013-07-10 19:49:00,
2013-07-10 14:54:00,84.7,77.5,30.02,ENE,68,0.0,0.0,79,0.00,CLR,,0.00,WeatherDisplay:10.37,2013-07-10 19:54:00,
2013-07-10 14:59:00,84.6,77.7,30.02,ENE,68,1.2,1.2,80,0.00,CLR,,0.00,WeatherDisplay:10.37,2013-07-10 19:59:00,
2013-07-10 15:04:00,84.6,77.7,30.02,NNW,338,0.0,0.0,80,0.00,CLR,,0.00,WeatherDisplay:10.37,2013-07-10 20:04:00,
2013-07-10 15:09:00,84.4,77.5,30.02,North,0,0.0,0.0,80,0.00,CLR,,0.00,WeatherDisplay:10.37,2013-07-10 20:09:00,
2013-07-10 15:14:00,84.4,77.5,30.02,NW,315,2.3,2.3,80,0.00,CLR,,0.00,WeatherDisplay:10.37,2013-07-10 20:14:00,
2013-07-10 15:19:00,84.4,77.5,30.02,SSE,158,4.6,7.9,80,0.00,CLR,,0.00,WeatherDisplay:10.37,2013-07-10 20:19:00,
2013-07-10 15:24:00,83.8,76.2,30.02,West,270,1.2,1.8,78,0.00,CLR,,0.00,WeatherDisplay:10.37,2013-07-10 20:24:00,
2013-07-10 15:29:00,83.5,75.9,30.02,NW,315,4.0,5.5,78,0.00,CLR,,0.00,WeatherDisplay:10.37,2013-07-10 20:29:00,
2013-07-10 15:34:00,83.1,75.9,30.02,NNW,338,2.3,4.7,79,0.00,CLR,,0.00,WeatherDisplay:10.37,2013-07-10 20:34:00,
2013-07-10 15:39:00,82.2,74.7,30.03,South,180,3.5,7.0,78,0.00,CLR,,0.00,WeatherDisplay:10.37,2013-07-10 20:39:00,
2013-07-10 15:44:00,81.7,74.5,30.03,SW,225,8.1,12.1,79,0.00,CLR,,0.00,WeatherDisplay:10.37,2013-07-10 20:44:00,
2013-07-10 15:49:00,81.1,74.0,30.02,NNE,22,9.2,12.3,79,0.00,CLR,,0.00,WeatherDisplay:10.37,2013-07-10 20:49:00,
2013-07-10 15:54:00,80.6,73.9,30.02,NNW,338,0.0,0.0,80,0.00,CLR,,0.00,WeatherDisplay:10.37,2013-07-10 20:54:00,
2013-07-10 15:59:00,79.9,73.5,30.02,NNW,338,2.3,2.5,81,0.00,CLR,,0.00,WeatherDisplay:10.37,2013-07-10 20:59:00,
2013-07-10 16:04:00,79.5,73.5,30.02,NNW,338,0.0,0.0,82,0.00,CLR,,0.00,WeatherDisplay:10.37,2013-07-10 21:04:00,
2013-07-10 16:09:00,79.2,73.2,30.02,NW,315,0.0,0.0,82,0.00,CLR,,0.00,WeatherDisplay:10.37,2013-07-10 21:09:00,
2013-07-10 16:14:00,78.6,73.0,30.01,WSW,248,0.0,0.0,83,0.00,CLR,,0.00,WeatherDisplay:10.37,2013-07-10 21:14:00,
2013-07-10 16:19:00,78.6,73.4,30.01,WSW,248,0.0,0.0,84,0.00,CLR,,0.00,WeatherDisplay:10.37,2013-07-10 21:19:00,
2013-07-10 16:24:00,78.4,73.6,30.01,WSW,248,0.0,0.0,85,0.00,CLR,,0.00,WeatherDisplay:10.37,2013-07-10 21:24:00,
2013-07-10 16:29:00,78.1,73.5,30.01,WSW,248,0.0,0.0,86,0.00,CLR,,0.00,WeatherDisplay:10.37,2013-07-10 21:29:00,
2013-07-10 16:34:00,78.1,73.5,30.01,WSW,248,0.0,0.0,86,0.00,CLR,,0.00,WeatherDisplay:10.37,2013-07-10 21:34:00,
2013-07-10 16:39:00,77.7,73.2,30.02,WSW,248,0.0,0.0,86,0.00,CLR,,0.00,WeatherDisplay:10.37,2013-07-10 21:39:00,
2013-07-10 16:44:00,77.7,73.5,30.02,ESE,112,4.6,4.8,87,0.00,CLR,,0.00,WeatherDisplay:10.37,2013-07-10 21:44:00,
2013-07-10 16:49:00,77.5,73.4,30.02,ESE,112,3.5,7.6,87,0.00,CLR,,0.00,WeatherDisplay:10.37,2013-07-10 21:49:00,
2013-07-10 16:54:00,77.0,72.8,30.02,ESE,112,0.0,0.0,87,0.00,CLR,,0.00,WeatherDisplay:10.37,2013-07-10 21:54:00,
2013-07-10 16:59:00,76.8,73.0,30.02,ESE,112,0.0,0.0,88,0.00,CLR,,0.00,WeatherDisplay:10.37,2013-07-10 21:59:00,
2013-07-10 17:04:00,76.8,73.0,30.02,ESE,112,0.0,0.0,88,0.00,CLR,,0.00,WeatherDisplay:10.37,2013-07-10 22:04:00,
2013-07-10 17:06:00,76.8,73.0,30.02,ESE,112,0.0,0.0,88,0.00,CLR,,0.00,WeatherDisplay:10.37,2013-07-10 22:06:00,
2013-07-10 17:11:00,76.8,73.0,30.02,ESE,112,0.0,0.0,88,0.00,CLR,,0.00,WeatherDisplay:10.37,2013-07-10 22:11:00,
2013-07-10 17:16:00,76.8,73.3,30.02,ESE,112,0.0,0.0,89,0.00,CLR,,0.00,WeatherDisplay:10.37,2013-07-10 22:16:00,
2013-07-10 17:21:00,76.8,73.3,30.02,ESE,112,0.0,0.0,89,0.00,CLR,,0.00,WeatherDisplay:10.37,2013-07-10 22:21:00,
2013-07-10 17:26:00,76.6,73.2,30.02,ESE,112,2.3,4.2,89,0.00,CLR,,0.00,WeatherDisplay:10.37,2013-07-10 22:26:00,
2013-07-10 17:31:00,76.6,73.2,30.02,ESE,112,2.3,3.2,89,0.00,CLR,,0.00,WeatherDisplay:10.37,2013-07-10 22:31:00,
2013-07-10 17:36:00,76.3,72.8,30.02,ESE,112,3.5,5.3,89,0.00,CLR,,0.00,WeatherDisplay:10.37,2013-07-10 22:36:00,
2013-07-10 17:41:00,76.1,72.6,30.02,ESE,112,0.0,0.0,89,0.00,CLR,,0.00,WeatherDisplay:10.37,2013-07-10 22:41:00,
2013-07-10 17:46:00,75.9,72.8,30.02,ESE,112,3.5,6.1,90,0.00,CLR,,0.00,WeatherDisplay:10.37,2013-07-10 22:46:00,
2013-07-10 17:51:00,75.9,72.8,30.01,ESE,112,0.0,0.0,90,0.02,RA,,0.02,WeatherDisplay:10.37,2013-07-10 22:51:00,
2013-07-10 17:56:00,75.7,72.6,30.01,ESE,112,0.0,0.0,90,0.02,RA,,0.02,WeatherDisplay:10.37,2013-07-10 22:56:00,
2013-07-10 18:01:00,75.9,72.8,30.01,ESE,112,0.0,0.0,90,0.02,,,0.02,WeatherDisplay:10.37,2013-07-10 23:01:00,
2013-07-10 18:06:00,75.7,72.6,30.01,ESE,112,0.0,0.0,90,0.02,CLR,,0.02,WeatherDisplay:10.37,2013-07-10 23:06:00,
2013-07-10 18:11:00,75.7,72.6,30.01,ESE,112,0.0,0.0,90,0.02,CLR,,0.02,WeatherDisplay:10.37,2013-07-10 23:11:00,
2013-07-10 18:16:00,75.7,72.6,30.00,ESE,112,0.0,0.0,90,0.02,CLR,,0.02,WeatherDisplay:10.37,2013-07-10 23:16:00,
2013-07-10 18:21:00,75.7,72.6,30.00,ESE,112,0.0,0.0,90,0.02,CLR,,0.02,WeatherDisplay:10.37,2013-07-10 23:21:00,
2013-07-10 18:26:00,75.9,72.8,30.00,ESE,112,0.0,0.0,90,0.02,CLR,,0.02,WeatherDisplay:10.37,2013-07-10 23:26:00,
2013-07-10 18:31:00,75.9,72.8,30.00,ESE,112,0.0,0.0,90,0.02,CLR,,0.02,WeatherDisplay:10.37,2013-07-10 23:31:00,
2013-07-10 18:36:00,75.9,73.1,30.00,ESE,112,0.0,0.0,91,0.02,CLR,,0.02,WeatherDisplay:10.37,2013-07-10 23:36:00,
2013-07-10 18:43:00,75.9,73.1,30.00,ESE,112,0.0,0.0,91,0.02,CLR,,0.02,WeatherDisplay:10.37,2013-07-10 23:43:00,
2013-07-10 18:48:00,75.9,73.1,29.99,ESE,112,2.3,2.3,91,0.02,CLR,,0.02,WeatherDisplay:10.37,2013-07-10 23:48:00,
2013-07-10 18:53:00,75.9,73.1,29.99,ESE,112,0.0,0.0,91,0.00,CLR,,0.02,WeatherDisplay:10.37,2013-07-10 23:53:00,
2013-07-10 18:58:00,75.9,73.1,29.99,ESE,112,0.0,0.0,91,0.00,CLR,,0.02,WeatherDisplay:10.37,2013-07-10 23:58:00,
2013-07-10 19:03:00,75.9,73.1,29.99,ESE,112,0.0,0.0,91,0.00,CLR,,0.02,WeatherDisplay:10.37,2013-07-11 00:03:00,
2013-07-10 19:08:00,75.9,73.1,29.98,ESE,112,0.0,0.0,91,0.00,CLR,,0.02,WeatherDisplay:10.37,2013-07-11 00:08:00,
2013-07-10 19:13:00,75.9,73.1,29.98,ESE,112,0.0,0.0,91,0.00,CLR,,0.02,WeatherDisplay:10.37,2013-07-11 00:13:00,
2013-07-10 19:20:00,75.9,73.1,29.98,ESE,112,0.0,0.0,91,0.00,CLR,,0.02,WeatherDisplay:10.37,2013-07-11 00:20:00,
2013-07-10 19:27:00,75.9,73.1,29.98,ESE,112,0.0,0.0,91,0.00,CLR,,0.02,WeatherDisplay:10.37,2013-07-11 00:27:00,
2013-07-10 19:32:00,75.7,72.9,29.98,ESE,112,0.0,0.0,91,0.00,CLR,,0.02,WeatherDisplay:10.37,2013-07-11 00:32:00,
2013-07-10 19:37:00,75.7,72.9,29.97,ESE,112,0.0,0.0,91,0.00,CLR,,0.02,WeatherDisplay:10.37,2013-07-11 00:37:00,
2013-07-10 19:42:00,75.7,72.9,29.97,ESE,112,0.0,0.0,91,0.00,CLR,,0.02,WeatherDisplay:10.37,2013-07-11 00:42:00,
2013-07-10 19:47:00,75.7,72.9,29.97,ESE,112,0.0,0.0,91,0.00,CLR,,0.02,WeatherDisplay:10.37,2013-07-11 00:47:00,
2013-07-10 19:52:00,75.7,72.9,29.97,ESE,112,0.0,0.0,91,0.00,CLR,,0.02,WeatherDisplay:10.37,2013-07-11 00:52:00,
2013-07-10 19:57:00,75.7,72.9,29.96,ESE,112,0.0,0.0,91,0.00,CLR,,0.02,WeatherDisplay:10.37,2013-07-11 00:57:00,
2013-07-10 20:02:00,75.7,72.9,29.97,ESE,112,0.0,0.0,91,0.00,CLR,,0.02,WeatherDisplay:10.37,2013-07-11 01:02:00,
2013-07-10 20:07:00,75.7,72.9,29.97,ESE,112,0.0,0.0,91,0.00,CLR,,0.02,WeatherDisplay:10.37,2013-07-11 01:07:00,
2013-07-10 20:12:00,75.7,72.9,29.97,ESE,112,0.0,0.0,91,0.00,CLR,,0.02,WeatherDisplay:10.37,2013-07-11 01:12:00,
2013-07-10 20:17:00,75.6,72.7,29.97,ESE,112,0.0,0.0,91,0.00,CLR,,0.02,WeatherDisplay:10.37,2013-07-11 01:17:00,
2013-07-10 20:22:00,75.6,73.1,29.97,ESE,112,0.0,0.0,92,0.00,CLR,,0.02,WeatherDisplay:10.37,2013-07-11 01:22:00,
2013-07-10 20:27:00,75.6,73.1,29.97,ESE,112,0.0,0.0,92,0.00,CLR,,0.02,WeatherDisplay:10.37,2013-07-11 01:27:00,
2013-07-10 20:32:00,75.6,73.1,29.98,ESE,112,0.0,0.0,92,0.00,CLR,,0.02,WeatherDisplay:10.37,2013-07-11 01:32:00,
2013-07-10 20:37:00,75.6,73.1,29.98,ESE,112,0.0,0.0,92,0.00,CLR,,0.02,WeatherDisplay:10.37,2013-07-11 01:37:00,
2013-07-10 20:42:00,75.4,72.9,29.98,ESE,112,0.0,0.0,92,0.00,CLR,,0.02,WeatherDisplay:10.37,2013-07-11 01:42:00,
2013-07-10 21:06:00,75.4,72.9,29.99,ESE,112,0.0,0.0,92,0.00,RA,,0.02,WeatherDisplay:10.37,2013-07-11 02:06:00,
2013-07-10 21:16:00,75.0,72.5,29.99,ESE,112,0.0,0.0,92,0.00,CLR,,0.02,WeatherDisplay:10.37,2013-07-11 02:16:00,
2013-07-10 21:24:00,75.2,72.7,29.99,ESE,112,0.0,0.0,92,0.00,CLR,,0.02,WeatherDisplay:10.37,2013-07-11 02:24:00,
2013-07-10 21:29:00,75.2,72.7,29.99,ESE,112,0.0,0.0,92,0.00,CLR,,0.02,WeatherDisplay:10.37,2013-07-11 02:29:00,
2013-07-10 21:34:00,75.2,72.7,29.99,ESE,112,0.0,0.0,92,0.00,CLR,,0.02,WeatherDisplay:10.37,2013-07-11 02:34:00,
2013-07-10 21:39:00,75.2,72.7,29.98,ESE,112,0.0,0.0,92,0.00,CLR,,0.02,WeatherDisplay:10.37,2013-07-11 02:39:00,
2013-07-10 21:44:00,75.0,72.5,29.98,ESE,112,0.0,0.0,92,0.00,CLR,,0.02,WeatherDisplay:10.37,2013-07-11 02:44:00,
2013-07-10 21:49:00,75.0,72.5,29.99,ESE,112,0.0,0.0,92,0.00,CLR,,0.02,WeatherDisplay:10.37,2013-07-11 02:49:00,
2013-07-10 21:54:00,75.0,72.5,29.99,ESE,112,0.0,0.0,92,0.00,CLR,,0.02,WeatherDisplay:10.37,2013-07-11 02:54:00,
2013-07-10 21:59:00,75.0,72.5,29.99,ESE,112,0.0,0.0,92,0.00,CLR,,0.02,WeatherDisplay:10.37,2013-07-11 02:59:00,
2013-07-10 22:04:00,75.0,72.5,29.98,ESE,112,0.0,0.0,92,0.00,CLR,,0.02,WeatherDisplay:10.37,2013-07-11 03:04:00,
2013-07-10 22:09:00,75.0,72.5,29.97,ESE,112,0.0,0.0,92,0.00,CLR,,0.02,WeatherDisplay:10.37,2013-07-11 03:09:00,
2013-07-10 22:14:00,75.0,72.5,29.97,ESE,112,0.0,0.0,92,0.00,CLR,,0.02,WeatherDisplay:10.37,2013-07-11 03:14:00,
2013-07-10 22:19:00,74.8,72.4,29.97,ESE,112,0.0,0.0,92,0.00,CLR,,0.02,WeatherDisplay:10.37,2013-07-11 03:19:00,
2013-07-10 22:24:00,74.8,72.4,29.97,ESE,112,0.0,0.0,92,0.00,CLR,,0.02,WeatherDisplay:10.37,2013-07-11 03:24:00,
2013-07-10 22:29:00,75.0,72.5,29.97,ESE,112,0.0,0.0,92,0.00,CLR,,0.02,WeatherDisplay:10.37,2013-07-11 03:29:00,
2013-07-10 22:34:00,75.0,72.5,29.97,ESE,112,0.0,0.0,92,0.00,CLR,,0.02,WeatherDisplay:10.37,2013-07-11 03:34:00,
2013-07-10 22:39:00,74.8,72.4,29.97,ESE,112,0.0,0.0,92,0.00,CLR,,0.02,WeatherDisplay:10.37,2013-07-11 03:39:00,
2013-07-10 22:44:00,74.8,72.4,29.97,ESE,112,0.0,0.0,92,0.00,CLR,,0.02,WeatherDisplay:10.37,2013-07-11 03:44:00,
2013-07-10 22:49:00,74.8,72.4,29.97,ESE,112,0.0,0.0,92,0.00,CLR,,0.02,WeatherDisplay:10.37,2013-07-11 03:49:00,
2013-07-10 22:54:00,74.8,72.4,29.97,ESE,112,0.0,0.0,92,0.00,CLR,,0.02,WeatherDisplay:10.37,2013-07-11 03:54:00,
2013-07-10 22:59:00,74.7,72.2,29.97,ESE,112,0.0,0.0,92,0.00,CLR,,0.02,WeatherDisplay:10.37,2013-07-11 03:59:00,
2013-07-10 23:01:00,74.8,72.4,29.97,ESE,112,0.0,0.0,92,0.00,CLR,,0.02,WeatherDisplay:10.37,2013-07-11 04:01:00,
2013-07-10 23:02:00,74.8,72.4,29.97,ESE,112,0.0,0.0,92,0.00,CLR,,0.02,WeatherDisplay:10.37,2013-07-11 04:02:00,
2013-07-10 23:07:00,74.8,72.4,29.97,ESE,112,0.0,0.0,92,0.00,CLR,,0.02,WeatherDisplay:10.37,2013-07-11 04:07:00,
2013-07-10 23:08:00,74.8,72.4,29.97,ESE,112,0.0,0.0,92,0.00,CLR,,0.02,WeatherDisplay:10.37,2013-07-11 04:08:00,
2013-07-10 23:13:00,74.8,72.4,29.96,ESE,112,0.0,0.0,92,0.00,CLR,,0.02,WeatherDisplay:10.37,2013-07-11 04:13:00,
2013-07-10 23:18:00,74.7,72.2,29.96,ESE,112,0.0,0.0,92,0.00,CLR,,0.02,WeatherDisplay:10.37,2013-07-11 04:18:00,
2013-07-10 23:23:00,74.7,72.2,29.96,ESE,112,0.0,0.0,92,0.00,CLR,,0.02,WeatherDisplay:10.37,2013-07-11 04:23:00,
2013-07-10 23:28:00,74.5,72.0,29.96,ESE,112,0.0,0.0,92,0.00,CLR,,0.02,WeatherDisplay:10.37,2013-07-11 04:28:00,
2013-07-10 23:33:00,74.5,72.0,29.96,ESE,112,0.0,0.0,92,0.00,CLR,,0.02,WeatherDisplay:10.37,2013-07-11 04:33:00,
2013-07-10 23:38:00,74.5,72.0,29.96,ESE,112,0.0,0.0,92,0.00,CLR,,0.02,WeatherDisplay:10.37,2013-07-11 04:38:00,
2013-07-10 23:43:00,74.5,72.0,29.95,ESE,112,0.0,0.0,92,0.00,CLR,,0.02,WeatherDisplay:10.37,2013-07-11 04:43:00,
2013-07-10 23:48:00,74.3,71.8,29.96,ESE,112,0.0,0.0,92,0.00,CLR,,0.02,WeatherDisplay:10.37,2013-07-11 04:48:00,
2013-07-10 23:53:00,74.3,71.8,29.96,ESE,112,0.0,0.0,92,0.00,CLR,,0.02,WeatherDisplay:10.37,2013-07-11 04:53:00,
2013-07-10 23:58:00,74.3,71.8,29.96,ESE,112,0.0,0.0,92,0.00,CLR,,0.02,WeatherDisplay:10.37,2013-07-11 04:58:00,